Location: Gajan
(43.0218°N, 1.1244°E)
Time: 15:48:55
(UTC+00:00)

BREEZE-M DEB (TANK) - Pass Details

Date: 22 April 2021
Orbit: 289 x 13025 km, 49.6° (Epoch: 12 May)

Event Time Altitude Azimuth Distance (km) Brightness Sun altitude
Rises 19:08:43 0° 257° (WSW) 2,257 6.5 -4.7°
Reaches altitude 10° 19:10:04 10° 261° (W) 1,628 5.8 -4.9°
Maximum altitude 19:13:14 63° 344° (NNW) 856 3.5 -5.4°
Drops below altitude 10° 19:22:50 10° 66° (ENE) 4,758 6.7 -7.0°
Sets 19:29:59 0° 69° (ENE) 7,576 7.7 -8.2°
